This demonstration page uses our WeatherBlox Daily Observations layout. Learn more.

Left ArrowRight Arrow

40.92501, -98.34201

Hourly Observations for August 30, 2022

Temp ( °F °C ) Dew Point ( °F °C ) Humidity (%) Winds ( mph kmh ) Pressure ( in mb ) Visibility ( mi km ) Precip ( " mm )
12:53 am 00:53 Clear 64 17.8 58 14.4 80 80 Calm 30.09 1019 10 16 0.00 0.00
1:53 am 01:53 Clear 60 15.6 56 13.3 86 86 W 5 7 30.10 1019 10 16 0.00 0.00
2:53 am 02:53 Clear 62 16.7 57 13.9 84 84 Calm 30.10 1019 10 16 0.00 0.00
3:53 am 03:53 Clear 62 16.7 56 13.3 80 80 VRB 3 6 30.11 1020 10 16 0.00 0.00
4:53 am 04:53 Clear 61 16.1 55 12.8 81 81 N 7 11 30.12 1020 10 16 0.00 0.00
5:53 am 05:53 Clear 59 15 53 11.7 81 81 NNW 3 6 30.13 1020 10 16 0.00 0.00
6:53 am 06:53 Clear 57 13.9 52 11.1 83 83 W 5 7 30.14 1021 10 16 0.00 0.00
7:53 am 07:53 Sunny 62 16.7 55 12.8 78 78 NW 5 7 30.16 1022 10 16 0.00 0.00
8:53 am 08:53 Sunny 67 19.4 56 13.3 68 68 W 3 6 30.19 1023 10 16 0.00 0.00
9:53 am 09:53 Sunny 75 23.9 54 12.2 48 48 WSW 3 6 30.20 1023 10 16 0.00 0.00
10:53 am 10:53 Sunny 77 25 47 8.3 35 35 E 6 9 30.22 1023 10 16 0.00 0.00
11:53 am 11:53 Sunny 81 27.2 49 9.4 33 33 VRB 5 7 30.21 1023 10 16 0.00 0.00
12:53 pm 12:53 Sunny 83 28.3 46 7.8 28 28 E 7 11 30.19 1022 10 16 0.00 0.00
1:53 pm 13:53 Sunny 84 28.9 48 8.9 29 29 VRB 6 9 30.18 1022 10 16 0.00 0.00
2:53 pm 14:53 Sunny 86 30 49 9.4 28 28 VRB 6 9 30.16 1021 10 16 0.00 0.00
3:53 pm 15:53 Sunny 87 30.6 50 10 28 28 SSE 6 9 30.13 1020 10 16 0.00 0.00
4:53 pm 16:53 Sunny 87 30.6 51 10.6 29 29 SE 6 9 30.12 1020 10 16 0.00 0.00
5:53 pm 17:53 Sunny 86 30 52 11.1 31 31 SSE 8 13 30.11 1020 10 16 0.00 0.00
6:53 pm 18:53 Sunny 84 28.9 54 12.2 36 36 SE 7 11 30.11 1020 10 16 0.00 0.00
7:53 pm 19:53 Sunny 78 25.6 56 13.3 47 47 SSE 6 9 30.11 1020 10 16 0.00 0.00
8:53 pm 20:53 Clear 75 23.9 58 14.4 55 55 SSE 7 11 30.12 1020 10 16 0.00 0.00
9:53 pm 21:53 Clear 72 22.2 57 13.9 59 59 SE 6 9 30.12 1020 10 16 0.00 0.00
10:53 pm 22:53 Clear 69 20.6 56 13.3 63 63 S 8 13 30.12 1020 10 16 0.00 0.00
11:53 pm 23:53 Clear 69 20.6 54 12.2 59 59 SSE 6 9 30.11 1020 10 16 0.00 0.00

Powered by AerisWeather